Location: Ferintosh
(52.7647°N, 112.9692°W)
Time: 23:13:47
(UTC+00:00)

A-11 Canister half - Pass Details

Date: 28 May 2024
Orbit: 1524 x 1683 km, 47.3° (Epoch: 20 June)

Event Time Altitude Azimuth Distance (km) Brightness Sun altitude
Rises 00:49:07 0° 168° (SSE) 4,661 11.4 23.0°
Reaches altitude 10° 00:55:38 10° 135° (SE) 3,699 10.6 22.0°
Maximum altitude 00:57:35 11° 123° (ESE) 3,643 10.5 21.7°
Drops below altitude 10° 00:59:33 10° 110° (ESE) 3,717 10.5 21.4°
Sets 01:06:08 0° 78° (ENE) 4,741 11.0 20.4°
